Weather in Uspenskaya

Russia / Krasnodar Krai     45°46′27″N   41°03′41″E
temp.,
°C
wind,
m/s
gust,
m/s
humid.,
%
clouds,
%
prec.,
mm/h
press.,
hPa
HPBL,
m
27 september, mon
mon2700:00+16w7137974 1.4 1014597
03:00+15wnw51081100 1.6 1014500
06:00+12wnw397352 0.0 1015369
09:00+14nw59593 0.0 1016939
12:00+17wnw68470 0.0 10161533
15:00+17wnw57435 0.0 10161883
18:00+15nnw35545 0.0 1016102
21:00+13nnw34595 0.0 101788
28 september, tue
tue2800:00+11ene12645 0.0 101711
03:00+11ese116512 0.0 101710
06:00+11wnw016596 0.0 101811
09:00+13nne005783 0.0 1019133
12:00+17n22405 0.0 10191719
15:00+18nne23399 0.0 10191924
18:00+15ne355275 0.0 1020145
21:00+14ene375942 0.0 1021208
29 september, wed
wed2900:00+13ene366633 0.0 1022156
03:00+11ne48759 0.0 1022216
06:00+10ene488098 0.0 1023212
09:00+12ene797157 0.0 1024603
12:00+15ene775687 0.0 10241281
15:00+14ne665298 0.0 10241494
18:00+13ne575427 0.0 1026708
21:00+11ne7105398 0.0 1027656
30 september, thu
thu3000:00+10ene6951100 0.0 1027680
03:00+8ene59575 0.0 1028370
06:00+7ene510620 0.0 1029342
09:00+10e710470 0.0 10301191
12:00+13e78350 0.0 10291601
15:00+14ene78335 0.0 10291785
18:00+12ene610390 0.0 1029436
21:00+10ene613450 0.0 1030438
1 october, fri
fri100:00+8e614490 0.0 1031484
03:00+7ene614530 0.0 1031429
06:00+6ene615540 0.0 1032438
09:00+10e812430 0.0 10321025
12:00+14e911310 0.0 10311566
15:00+16e911290 0.0 10301784
18:00+13ene713340 0.0 1030599
21:00+11e816360 0.0 1031628